Location: Godiavel Galaoual
(15.2485°N, 12.6604°W)
Time: 20:09:47
(UTC+00:00)

Altair - All Passes

Search period start: 13 June 2021 00:00
Search period end: 23 June 2021 00:00
Orbit: 1501 x 1683 km, 47.2° (Epoch: 12 June)

Date Brightness Start Highest point End Pass type
(mag) Time Alt. Az. Time Alt. Az. Time Alt. Az.
13 Jun - 01:04:34 10° WNW 01:13:30 36° SW 01:22:19 10° S visible
13 Jun - 11:59:22 10° S 12:06:39 26° SE 12:14:04 10° ENE daylight
13 Jun - 14:01:41 10° SW 14:10:52 66° NW 14:20:25 10° NE daylight
13 Jun - 16:11:23 10° WNW 16:17:02 17° NNW 16:22:50 10° N daylight
13 Jun - 20:32:13 10° N 20:36:46 14° NNE 20:41:19 10° NE visible
13 Jun - 22:33:54 10° NNW 22:43:40 50° NE 22:53:21 10° ESE visible
14 Jun - 00:39:06 10° WNW 00:48:20 41° SW 00:57:28 10° SSE visible
14 Jun - 11:34:44 10° S 11:41:31 23° SE 11:48:24 10° ENE daylight
14 Jun - 13:36:27 10° SW 13:45:41 73° NW 13:55:16 10° NE daylight
14 Jun - 15:45:32 10° WNW 15:51:38 18° NNW 15:57:54 10° N daylight
14 Jun - 20:07:32 10° N 20:11:15 12° NNE 20:15:00 10° NE visible
14 Jun - 22:08:48 10° NNW 22:18:24 46° NE 22:27:55 10° ESE visible
15 Jun - 00:13:40 10° WNW 00:23:09 46° SW 00:32:33 10° SSE visible
15 Jun - 11:10:12 10° S 11:16:24 20° SE 11:22:39 10° E daylight
15 Jun - 13:11:16 10° SW 13:20:31 81° NW 13:30:05 10° NE daylight
15 Jun - 15:19:45 10° WNW 15:26:15 20° NNW 15:32:57 10° NNE daylight
15 Jun - 19:43:03 10° N 19:45:44 11° NNE 19:48:27 10° NE visible
15 Jun - 21:43:43 10° NNW 21:53:07 42° NE 22:02:28 10° ESE visible
15 Jun - 23:48:18 10° NW 23:57:59 51° SW 00:07:35 10° SSE visible
16 Jun - 10:45:48 10° SSE 10:51:16 17° SE 10:56:46 10° E daylight
16 Jun - 12:46:06 10° SW 12:55:20 89° NW 13:04:54 10° NE daylight
16 Jun - 14:54:01 10° W 15:00:53 22° NW 15:07:58 10° NNE daylight
16 Jun - 19:19:18 10° NNE 19:20:12 10° NNE 19:21:07 10° NNE daylight
16 Jun - 21:18:39 10° NNW 21:27:49 38° NE 21:36:58 10° ESE visible
16 Jun - 23:22:56 10° NW 23:32:47 57° SW 23:42:35 10° SSE visible
17 Jun - 10:21:36 10° SSE 10:26:07 15° SE 10:30:40 10° E daylight
17 Jun - 12:21:00 10° SW 12:30:12 83° SE 12:39:41 10° NE daylight
17 Jun - 14:28:21 10° W 14:35:33 24° NW 14:42:59 10° NNE daylight
17 Jun - 20:53:36 10° NNW 21:02:30 34° NE 21:11:25 10° ESE visible
17 Jun - 22:57:37 10° NW 23:07:36 63° SW 23:17:32 10° SSE visible
18 Jun - 09:57:46 10° SSE 10:00:59 12° SE 10:04:11 10° ESE daylight
18 Jun - 11:55:54 10° SW 12:05:03 75° SE 12:14:27 10° NE daylight
18 Jun - 14:02:44 10° W 14:10:14 27° NW 14:17:58 10° NNE daylight
18 Jun - 20:28:35 10° NNW 20:37:10 31° NE 20:45:48 10° E visible
18 Jun - 22:32:20 10° NW 22:42:24 70° SW 22:52:27 10° SSE visible
19 Jun - 00:43:13 10° WSW 00:46:44 12° SW 00:50:15 10° SSW visible
19 Jun - 11:30:50 10° SSW 11:39:55 68° SE 11:49:12 10° NE daylight
19 Jun - 13:37:09 10° W 13:44:56 30° NW 13:52:57 10° NNE daylight
19 Jun - 20:03:33 10° NNW 20:11:50 28° NE 20:20:09 10° E visible
19 Jun - 22:07:05 10° NW 22:17:13 78° SW 22:27:20 10° SE visible
20 Jun - 00:16:37 10° W 00:21:32 15° SW 00:26:28 10° SSW visible
20 Jun - 11:05:49 10° SSW 11:14:47 60° SE 11:23:56 10° NE daylight
20 Jun - 13:11:38 10° W 13:19:39 33° NW 13:27:55 10° NNE daylight
20 Jun - 19:38:34 10° NNW 19:46:29 26° NE 19:54:27 10° E visible
20 Jun - 21:41:51 10° NW 21:52:01 85° SW 22:02:11 10° SE visible
20 Jun - 23:50:26 10° W 23:56:21 17° SW 00:02:16 10° SSW visible
21 Jun - 10:40:49 10° SSW 10:49:39 54° SE 10:58:38 10° NE daylight
21 Jun - 12:46:09 10° WSW 12:54:23 36° NW 13:02:52 10° NNE daylight
21 Jun - 19:13:35 10° NNW 19:21:07 23° NE 19:28:42 10° E daylight
21 Jun - 21:16:39 10° NW 21:26:48 87° NE 21:36:59 10° SE visible
21 Jun - 23:24:28 10° W 23:31:10 20° SW 23:37:52 10° S visible
22 Jun - 10:15:52 10° SSW 10:24:32 48° SE 10:33:19 10° ENE daylight
22 Jun - 12:20:43 10° WSW 12:29:08 40° NW 12:37:50 10° NNE daylight
22 Jun - 14:35:32 10° NNW 14:36:21 10° NNW 14:37:10 10° NNW daylight
22 Jun - 18:48:39 10° NNW 18:55:44 21° NE 19:02:52 10° E daylight
22 Jun - 20:51:29 10° NW 21:01:35 80° NE 21:11:46 10° SE visible
22 Jun - 22:58:39 10° W 23:05:59 23° SW 23:13:19 10° S visible
